Time,TemperatureF,DewpointF,PressureIn,WindDirection,WindDirectionDegrees,WindSpeedMPH,WindSpeedGustMPH,Humidity,HourlyPrecipIn,Conditions,Clouds,dailyrainin,SoftwareType,DateUTC
2013-01-30 00:03:00,39.0,30.4,28.26,NW,315,11.0,21.0,71,0.00,,,0.00,meteohub,2013-01-30 06:03:00,
2013-01-30 00:08:00,39.2,30.9,28.26,North,0,10.0,15.0,72,0.00,,,0.00,meteohub,2013-01-30 06:08:00,
2013-01-30 00:13:00,38.8,30.9,28.26,NW,315,8.0,15.0,73,0.00,,,0.00,meteohub,2013-01-30 06:13:00,
2013-01-30 00:18:00,38.5,30.9,28.26,NW,315,6.0,15.0,74,0.00,,,0.00,meteohub,2013-01-30 06:18:00,
2013-01-30 00:23:00,38.1,30.9,28.27,NW,315,8.0,11.0,75,0.00,,,0.00,meteohub,2013-01-30 06:23:00,
2013-01-30 00:28:00,37.9,31.1,28.27,NW,315,6.0,11.0,76,0.00,,,0.00,meteohub,2013-01-30 06:28:00,
2013-01-30 00:33:00,37.8,30.9,28.27,NW,315,8.0,11.0,76,0.00,,,0.00,meteohub,2013-01-30 06:33:00,
2013-01-30 00:38:00,37.9,31.1,28.28,North,0,7.0,11.0,76,0.00,,,0.00,meteohub,2013-01-30 06:38:00,
2013-01-30 00:43:00,38.5,31.3,28.28,West,270,8.0,11.0,75,0.00,,,0.00,meteohub,2013-01-30 06:43:00,
2013-01-30 00:48:00,38.8,31.3,28.28,NE,45,11.0,12.0,74,0.00,,,0.00,meteohub,2013-01-30 06:48:00,
2013-01-30 00:53:00,39.6,31.3,28.29,WNW,293,25.0,25.0,72,0.00,,,0.00,meteohub,2013-01-30 06:53:00,
2013-01-30 00:58:00,39.7,31.5,28.29,NW,315,12.0,25.0,72,0.00,,,0.00,meteohub,2013-01-30 06:58:00,
2013-01-30 01:03:00,39.6,31.6,28.29,NW,315,16.0,25.0,73,0.00,,,0.00,meteohub,2013-01-30 07:03:00,
2013-01-30 01:08:00,39.4,31.8,28.29,NW,315,10.0,25.0,74,0.00,,,0.00,meteohub,2013-01-30 07:08:00,
2013-01-30 01:13:00,39.2,32.0,28.30,North,0,13.0,20.0,75,0.00,,,0.00,meteohub,2013-01-30 07:13:00,
2013-01-30 01:18:00,39.0,32.2,28.30,NW,315,12.0,20.0,76,0.00,,,0.00,meteohub,2013-01-30 07:18:00,
2013-01-30 01:23:00,39.0,31.8,28.30,NW,315,18.0,20.0,75,0.00,,,0.00,meteohub,2013-01-30 07:23:00,
2013-01-30 01:28:00,39.0,31.8,28.30,North,0,11.0,19.0,75,0.00,,,0.00,meteohub,2013-01-30 07:28:00,
2013-01-30 01:33:00,38.8,30.9,28.30,West,270,15.0,18.0,73,0.00,,,0.00,meteohub,2013-01-30 07:33:00,
2013-01-30 01:38:00,39.0,30.7,28.31,NW,315,20.0,21.0,72,0.00,,,0.00,meteohub,2013-01-30 07:38:00,
2013-01-30 01:44:00,38.8,30.6,28.31,NW,315,14.0,21.0,72,0.00,,,0.00,meteohub,2013-01-30 07:44:00,
2013-01-30 01:49:00,39.0,30.4,28.31,NW,315,13.0,20.0,71,0.00,,,0.00,meteohub,2013-01-30 07:49:00,
2013-01-30 01:54:00,38.7,29.7,28.32,NW,315,17.0,20.0,70,0.00,,,0.00,meteohub,2013-01-30 07:54:00,
2013-01-30 01:59:00,38.8,29.8,28.32,NW,315,15.0,19.0,70,0.00,,,0.00,meteohub,2013-01-30 07:59:00,
2013-01-30 02:04:00,38.8,29.8,28.32,West,270,15.0,17.0,70,0.00,,,0.00,meteohub,2013-01-30 08:04:00,
2013-01-30 02:09:00,38.8,29.8,28.32,West,270,10.0,17.0,70,0.00,,,0.00,meteohub,2013-01-30 08:09:00,
2013-01-30 02:14:00,38.8,30.2,28.32,West,270,11.0,15.0,71,0.00,,,0.00,meteohub,2013-01-30 08:14:00,
2013-01-30 02:19:00,38.5,29.8,28.32,NW,315,11.0,15.0,71,0.00,,,0.00,meteohub,2013-01-30 08:19:00,
2013-01-30 02:24:00,38.5,30.2,28.33,NW,315,7.0,13.0,72,0.00,,,0.00,meteohub,2013-01-30 08:24:00,
2013-01-30 02:29:00,38.7,30.0,28.32,North,0,9.0,13.0,71,0.00,,,0.00,meteohub,2013-01-30 08:29:00,
2013-01-30 02:34:00,38.8,29.8,28.32,NW,315,18.0,18.0,70,0.00,,,0.00,meteohub,2013-01-30 08:34:00,
2013-01-30 02:39:00,39.2,30.2,28.33,NW,315,12.0,18.0,70,0.00,,,0.00,meteohub,2013-01-30 08:39:00,
2013-01-30 02:44:00,39.4,29.7,28.32,NW,315,14.0,18.0,68,0.00,,,0.00,meteohub,2013-01-30 08:44:00,
2013-01-30 02:49:00,39.6,29.8,28.33,NW,315,15.0,21.0,68,0.00,,,0.00,meteohub,2013-01-30 08:49:00,
2013-01-30 02:54:00,39.7,30.0,28.33,NW,315,11.0,21.0,68,0.00,,,0.00,meteohub,2013-01-30 08:54:00,
2013-01-30 02:59:00,39.6,29.8,28.33,NW,315,12.0,21.0,68,0.00,,,0.00,meteohub,2013-01-30 08:59:00,
2013-01-30 03:04:00,39.6,30.2,28.33,SW,225,12.0,17.0,69,0.00,,,0.00,meteohub,2013-01-30 09:04:00,
2013-01-30 03:09:00,39.6,29.8,28.33,NW,315,14.0,17.0,68,0.00,,,0.00,meteohub,2013-01-30 09:09:00,
2013-01-30 03:14:00,39.0,29.7,28.33,NW,315,17.0,17.0,69,0.00,,,0.00,meteohub,2013-01-30 09:14:00,
2013-01-30 03:19:00,38.7,29.7,28.34,WNW,293,11.0,17.0,70,0.00,,,0.00,meteohub,2013-01-30 09:19:00,
2013-01-30 03:24:00,38.8,29.8,28.34,NW,315,8.0,17.0,70,0.00,,,0.00,meteohub,2013-01-30 09:24:00,
2013-01-30 03:29:00,38.8,29.8,28.34,West,270,15.0,17.0,70,0.00,,,0.00,meteohub,2013-01-30 09:29:00,
2013-01-30 03:34:00,38.5,29.5,28.34,NW,315,11.0,15.0,70,0.00,,,0.00,meteohub,2013-01-30 09:34:00,
2013-01-30 03:39:00,38.1,29.5,28.34,NW,315,10.0,15.0,71,0.00,,,0.00,meteohub,2013-01-30 09:39:00,
2013-01-30 03:44:00,37.9,29.7,28.35,NW,315,13.0,15.0,72,0.00,,,0.00,meteohub,2013-01-30 09:44:00,
2013-01-30 03:49:00,37.8,29.8,28.35,NW,315,10.0,14.0,73,0.00,,,0.00,meteohub,2013-01-30 09:49:00,
2013-01-30 03:54:00,37.6,29.7,28.35,NW,315,9.0,14.0,73,0.00,,,0.00,meteohub,2013-01-30 09:54:00,
2013-01-30 03:59:00,37.4,29.5,28.36,NW,315,16.0,16.0,73,0.00,,,0.00,meteohub,2013-01-30 09:59:00,
2013-01-30 04:04:00,37.8,29.5,28.36,NW,315,11.0,15.0,72,0.00,,,0.00,meteohub,2013-01-30 10:04:00,
2013-01-30 04:09:00,37.8,29.5,28.36,West,270,16.0,17.0,72,0.00,,,0.00,meteohub,2013-01-30 10:09:00,
2013-01-30 04:14:00,38.1,29.5,28.37,NW,315,19.0,19.0,71,0.00,,,0.00,meteohub,2013-01-30 10:14:00,
2013-01-30 04:19:00,38.5,29.5,28.37,NW,315,17.0,17.0,70,0.00,,,0.00,meteohub,2013-01-30 10:19:00,
2013-01-30 04:24:00,38.3,29.3,28.38,NW,315,13.0,19.0,70,0.00,,,0.00,meteohub,2013-01-30 10:24:00,
2013-01-30 04:29:00,38.1,29.1,28.38,SW,225,11.0,19.0,70,0.00,,,0.00,meteohub,2013-01-30 10:29:00,
2013-01-30 04:34:00,37.9,29.1,28.39,NW,315,16.0,17.0,70,0.00,,,0.00,meteohub,2013-01-30 10:34:00,
2013-01-30 04:39:00,37.8,28.9,28.39,West,270,11.0,15.0,70,0.00,,,0.00,meteohub,2013-01-30 10:39:00,
2013-01-30 04:44:00,38.1,28.2,28.39,NW,315,13.0,16.0,67,0.00,,,0.00,meteohub,2013-01-30 10:44:00,
2013-01-30 04:49:00,37.9,27.7,28.40,NW,315,11.0,22.0,66,0.00,,,0.00,meteohub,2013-01-30 10:49:00,
2013-01-30 04:54:00,37.4,27.5,28.40,NW,315,17.0,22.0,67,0.00,,,0.00,meteohub,2013-01-30 10:54:00,
2013-01-30 04:59:00,37.2,27.7,28.40,WNW,293,11.0,23.0,68,0.00,,,0.00,meteohub,2013-01-30 10:59:00,
2013-01-30 05:04:00,36.7,27.5,28.40,NW,315,11.0,23.0,69,0.00,,,0.00,meteohub,2013-01-30 11:04:00,
2013-01-30 05:09:00,36.3,27.5,28.40,NW,315,12.0,23.0,70,0.00,,,0.00,meteohub,2013-01-30 11:09:00,
2013-01-30 05:14:00,36.3,27.5,28.40,WNW,293,14.0,15.0,70,0.00,,,0.00,meteohub,2013-01-30 11:14:00,
2013-01-30 05:19:00,36.3,27.1,28.41,North,0,15.0,15.0,69,0.00,,,0.00,meteohub,2013-01-30 11:19:00,
2013-01-30 05:24:00,36.3,27.1,28.41,NW,315,12.0,15.0,69,0.00,,,0.00,meteohub,2013-01-30 11:24:00,
2013-01-30 05:30:00,36.0,27.1,28.42,NW,315,11.0,16.0,70,0.00,,,0.00,meteohub,2013-01-30 11:30:00,
2013-01-30 05:35:00,36.0,27.5,28.42,NW,315,11.0,16.0,71,0.00,,,0.00,meteohub,2013-01-30 11:35:00,
2013-01-30 05:40:00,36.1,27.7,28.42,NW,315,11.0,16.0,71,0.00,,,0.00,meteohub,2013-01-30 11:40:00,
2013-01-30 05:45:00,36.3,27.9,28.43,West,270,9.0,16.0,71,0.00,,,0.00,meteohub,2013-01-30 11:45:00,
2013-01-30 05:50:00,36.5,28.0,28.42,NW,315,13.0,15.0,71,0.00,,,0.00,meteohub,2013-01-30 11:50:00,
2013-01-30 05:55:00,36.7,27.5,28.43,NW,315,9.0,15.0,69,0.00,,,0.00,meteohub,2013-01-30 11:55:00,
2013-01-30 06:00:00,37.4,27.5,28.43,NW,315,13.0,15.0,67,0.00,,,0.00,meteohub,2013-01-30 12:00:00,
2013-01-30 06:05:00,37.4,27.1,28.44,NW,315,13.0,17.0,66,0.00,,,0.00,meteohub,2013-01-30 12:05:00,
2013-01-30 06:10:00,37.4,27.5,28.44,NW,315,12.0,17.0,67,0.00,,,0.00,meteohub,2013-01-30 12:10:00,
2013-01-30 06:15:00,37.6,27.7,28.44,NW,315,16.0,17.0,67,0.00,,,0.00,meteohub,2013-01-30 12:15:00,
2013-01-30 06:20:00,37.6,27.7,28.44,West,270,13.0,17.0,67,0.00,,,0.00,meteohub,2013-01-30 12:20:00,
2013-01-30 06:25:00,37.6,27.7,28.45,NW,315,14.0,17.0,67,0.00,,,0.00,meteohub,2013-01-30 12:25:00,
2013-01-30 06:30:00,37.6,27.7,28.45,NW,315,11.0,16.0,67,0.00,,,0.00,meteohub,2013-01-30 12:30:00,
2013-01-30 06:35:00,37.2,27.3,28.45,NW,315,16.0,16.0,67,0.00,,,0.00,meteohub,2013-01-30 12:35:00,
2013-01-30 06:40:00,36.7,27.1,28.45,NW,315,15.0,16.0,68,0.00,,,0.00,meteohub,2013-01-30 12:40:00,
2013-01-30 06:45:00,36.3,26.4,28.46,NW,315,18.0,21.0,67,0.00,,,0.00,meteohub,2013-01-30 12:45:00,
2013-01-30 06:50:00,36.0,26.4,28.46,West,270,14.0,21.0,68,0.00,,,0.00,meteohub,2013-01-30 12:50:00,
2013-01-30 06:55:00,35.4,25.9,28.48,NW,315,17.0,19.0,68,0.00,,,0.00,meteohub,2013-01-30 12:55:00,
2013-01-30 07:00:00,35.4,25.2,28.48,NW,315,16.0,18.0,66,0.00,,,0.00,meteohub,2013-01-30 13:00:00,
2013-01-30 07:05:00,35.1,24.8,28.48,NW,315,16.0,19.0,66,0.00,,,0.00,meteohub,2013-01-30 13:05:00,
2013-01-30 07:10:00,34.7,24.8,28.48,NW,315,13.0,21.0,67,0.00,,,0.00,meteohub,2013-01-30 13:10:00,
2013-01-30 07:15:00,34.2,24.1,28.49,West,270,16.0,21.0,66,0.00,,,0.00,meteohub,2013-01-30 13:15:00,
2013-01-30 07:20:00,34.2,24.6,28.49,NW,315,13.0,21.0,68,0.00,,,0.00,meteohub,2013-01-30 13:20:00,
2013-01-30 07:25:00,33.6,24.3,28.49,NW,315,17.0,19.0,68,0.00,,,0.00,meteohub,2013-01-30 13:25:00,
2013-01-30 07:30:00,33.3,24.3,28.51,West,270,15.0,19.0,69,0.00,,,0.00,meteohub,2013-01-30 13:30:00,
2013-01-30 07:35:00,33.3,24.3,28.51,West,270,15.0,19.0,69,0.00,,,0.00,meteohub,2013-01-30 13:35:00,
2013-01-30 07:40:00,32.9,23.9,28.51,West,270,15.0,18.0,69,0.00,,,0.00,meteohub,2013-01-30 13:40:00,
2013-01-30 07:45:00,32.7,23.7,28.51,North,0,10.0,19.0,69,0.00,,,0.00,meteohub,2013-01-30 13:45:00,
2013-01-30 07:50:00,32.5,23.5,28.52,WNW,293,11.0,19.0,69,0.00,,,0.00,meteohub,2013-01-30 13:50:00,
2013-01-30 07:56:00,32.5,23.5,28.52,NW,315,17.0,19.0,69,0.00,,,0.00,meteohub,2013-01-30 13:56:00,
2013-01-30 08:01:00,32.7,23.4,28.53,NW,315,10.0,18.0,68,0.00,,,0.00,meteohub,2013-01-30 14:01:00,
2013-01-30 08:06:00,32.7,23.4,28.52,NW,315,11.0,18.0,68,0.00,,,0.00,meteohub,2013-01-30 14:06:00,
2013-01-30 08:11:00,32.9,23.2,28.52,NW,315,18.0,20.0,67,0.00,,,0.00,meteohub,2013-01-30 14:11:00,
2013-01-30 08:16:00,32.9,23.2,28.52,WNW,293,20.0,20.0,67,0.00,,,0.00,meteohub,2013-01-30 14:16:00,
2013-01-30 08:21:00,33.1,23.0,28.53,NW,315,15.0,20.0,66,0.00,,,0.00,meteohub,2013-01-30 14:21:00,
2013-01-30 08:26:00,33.4,23.4,28.53,NW,315,12.0,20.0,66,0.00,,,0.00,meteohub,2013-01-30 14:26:00,
2013-01-30 08:31:00,33.4,23.0,28.53,NW,315,20.0,20.0,65,0.00,,,0.00,meteohub,2013-01-30 14:31:00,
2013-01-30 08:36:00,33.6,23.2,28.53,NW,315,17.0,20.0,65,0.00,,,0.00,meteohub,2013-01-30 14:36:00,
2013-01-30 08:41:00,33.6,23.2,28.53,NW,315,15.0,20.0,65,0.00,,,0.00,meteohub,2013-01-30 14:41:00,
2013-01-30 08:46:00,33.8,23.0,28.54,NW,315,16.0,20.0,64,0.00,,,0.00,meteohub,2013-01-30 14:46:00,
2013-01-30 08:51:00,34.2,23.2,28.54,North,0,16.0,20.0,64,0.00,,,0.00,meteohub,2013-01-30 14:51:00,
2013-01-30 08:56:00,34.2,23.2,28.55,NW,315,13.0,20.0,64,0.00,,,0.00,meteohub,2013-01-30 14:56:00,
2013-01-30 09:01:00,34.5,23.2,28.55,NW,315,15.0,21.0,63,0.00,,,0.00,meteohub,2013-01-30 15:01:00,
2013-01-30 09:06:00,34.7,23.4,28.55,West,270,17.0,21.0,63,0.00,,,0.00,meteohub,2013-01-30 15:06:00,
2013-01-30 09:11:00,34.7,23.0,28.55,West,270,16.0,21.0,62,0.00,,,0.00,meteohub,2013-01-30 15:11:00,
2013-01-30 09:16:00,35.1,23.4,28.56,WNW,293,15.0,23.0,62,0.00,,,0.00,meteohub,2013-01-30 15:16:00,
2013-01-30 09:21:00,35.2,23.5,28.56,NW,315,18.0,23.0,62,0.00,,,0.00,meteohub,2013-01-30 15:21:00,
2013-01-30 09:26:00,35.4,23.7,28.56,NW,315,16.0,23.0,62,0.00,,,0.00,meteohub,2013-01-30 15:26:00,
2013-01-30 09:31:00,35.8,23.7,28.56,West,270,14.0,21.0,61,0.00,,,0.00,meteohub,2013-01-30 15:31:00,
2013-01-30 09:36:00,36.0,23.9,28.56,West,270,11.0,21.0,61,0.00,,,0.00,meteohub,2013-01-30 15:36:00,
2013-01-30 09:41:00,36.3,23.7,28.57,NW,315,18.0,21.0,60,0.00,,,0.00,meteohub,2013-01-30 15:41:00,
2013-01-30 09:46:00,36.7,23.7,28.57,NW,315,17.0,22.0,59,0.00,,,0.00,meteohub,2013-01-30 15:46:00,
2013-01-30 09:51:00,36.9,23.5,28.57,NW,315,15.0,22.0,58,0.00,,,0.00,meteohub,2013-01-30 15:51:00,
2013-01-30 09:56:00,36.9,23.0,28.57,NW,315,18.0,22.0,57,0.00,,,0.00,meteohub,2013-01-30 15:56:00,
2013-01-30 10:01:00,37.2,24.3,28.58,West,270,13.0,20.0,59,0.00,,,0.00,meteohub,2013-01-30 16:01:00,
2013-01-30 10:06:00,37.4,23.5,28.57,NW,315,16.0,20.0,57,0.00,,,0.00,meteohub,2013-01-30 16:06:00,
2013-01-30 10:11:00,37.8,23.9,28.58,NW,315,16.0,20.0,57,0.00,,,0.00,meteohub,2013-01-30 16:11:00,
2013-01-30 10:16:00,37.9,23.7,28.57,NW,315,15.0,17.0,56,0.00,,,0.00,meteohub,2013-01-30 16:16:00,
2013-01-30 10:21:00,38.3,23.9,28.58,West,270,17.0,17.0,56,0.00,,,0.00,meteohub,2013-01-30 16:21:00,
2013-01-30 10:26:00,38.5,23.7,28.58,West,270,15.0,19.0,55,0.00,,,0.00,meteohub,2013-01-30 16:26:00,
2013-01-30 10:31:00,38.5,23.4,28.58,West,270,14.0,19.0,54,0.00,,,0.00,meteohub,2013-01-30 16:31:00,
2013-01-30 10:36:00,38.8,23.5,28.58,NW,315,17.0,21.0,54,0.00,,,0.00,meteohub,2013-01-30 16:36:00,
2013-01-30 10:41:00,39.0,23.7,28.58,WNW,293,15.0,21.0,54,0.00,,,0.00,meteohub,2013-01-30 16:41:00,
2013-01-30 10:46:00,39.6,24.3,28.58,NW,315,15.0,21.0,54,0.00,,,0.00,meteohub,2013-01-30 16:46:00,
2013-01-30 10:51:00,39.4,23.7,28.58,NW,315,15.0,18.0,53,0.00,,,0.00,meteohub,2013-01-30 16:51:00,
2013-01-30 10:56:00,40.1,24.3,28.58,NW,315,15.0,18.0,53,0.00,,,0.00,meteohub,2013-01-30 16:56:00,
2013-01-30 11:01:00,40.3,23.5,28.58,West,270,17.0,19.0,51,0.00,,,0.00,meteohub,2013-01-30 17:01:00,
2013-01-30 11:06:00,41.0,24.3,28.58,NW,315,15.0,19.0,51,0.00,,,0.00,meteohub,2013-01-30 17:06:00,
2013-01-30 11:11:00,41.2,24.4,28.58,North,0,11.0,17.0,51,0.00,,,0.00,meteohub,2013-01-30 17:11:00,
2013-01-30 11:16:00,40.8,23.2,28.59,West,270,14.0,20.0,49,0.00,,,0.00,meteohub,2013-01-30 17:16:00,
2013-01-30 11:22:00,41.2,23.5,28.59,NW,315,17.0,20.0,49,0.00,,,0.00,meteohub,2013-01-30 17:22:00,
2013-01-30 11:27:00,41.4,23.2,28.59,North,0,15.0,20.0,48,0.00,,,0.00,meteohub,2013-01-30 17:27:00,
2013-01-30 11:32:00,41.7,23.9,28.58,North,0,13.0,20.0,49,0.00,,,0.00,meteohub,2013-01-30 17:32:00,
2013-01-30 11:37:00,42.6,24.3,28.59,NW,315,12.0,17.0,48,0.00,,,0.00,meteohub,2013-01-30 17:37:00,
2013-01-30 11:42:00,42.3,23.0,28.59,West,270,17.0,17.0,46,0.00,,,0.00,meteohub,2013-01-30 17:42:00,
2013-01-30 11:47:00,42.6,22.8,28.59,NW,315,15.0,21.0,45,0.00,,,0.00,meteohub,2013-01-30 17:47:00,
2013-01-30 11:52:00,42.6,22.8,28.59,NW,315,16.0,22.0,45,0.00,,,0.00,meteohub,2013-01-30 17:52:00,
2013-01-30 11:57:00,42.6,22.8,28.59,NW,315,15.0,22.0,45,0.00,,,0.00,meteohub,2013-01-30 17:57:00,
2013-01-30 12:02:00,43.2,22.6,28.58,NW,315,14.0,22.0,44,0.00,,,0.00,meteohub,2013-01-30 18:02:00,
2013-01-30 12:07:00,43.5,23.0,28.58,West,270,16.0,21.0,44,0.00,,,0.00,meteohub,2013-01-30 18:07:00,
2013-01-30 12:12:00,44.1,22.5,28.58,West,270,13.0,21.0,42,0.00,,,0.00,meteohub,2013-01-30 18:12:00,
2013-01-30 12:17:00,44.2,22.1,28.58,NW,315,21.0,21.0,41,0.00,,,0.00,meteohub,2013-01-30 18:17:00,
2013-01-30 12:22:00,43.9,21.2,28.58,NW,315,17.0,21.0,40,0.00,,,0.00,meteohub,2013-01-30 18:22:00,
2013-01-30 12:27:00,44.1,21.9,28.58,NW,315,11.0,21.0,41,0.00,,,0.00,meteohub,2013-01-30 18:27:00,
2013-01-30 12:32:00,45.0,21.6,28.57,NW,315,15.0,22.0,39,0.00,,,0.00,meteohub,2013-01-30 18:32:00,
2013-01-30 12:37:00,44.6,21.2,28.57,West,270,20.0,22.0,39,0.00,,,0.00,meteohub,2013-01-30 18:37:00,
2013-01-30 12:42:00,44.8,20.7,28.57,North,0,21.0,22.0,38,0.00,,,0.00,meteohub,2013-01-30 18:42:00,
2013-01-30 12:47:00,45.1,20.5,28.57,NW,315,18.0,23.0,37,0.00,,,0.00,meteohub,2013-01-30 18:47:00,
2013-01-30 12:52:00,45.1,20.5,28.57,NW,315,16.0,23.0,37,0.00,,,0.00,meteohub,2013-01-30 18:52:00,
2013-01-30 12:57:00,46.0,21.2,28.56,West,270,17.0,23.0,37,0.00,,,0.00,meteohub,2013-01-30 18:57:00,
2013-01-30 13:02:00,45.3,19.2,28.56,NW,315,23.0,23.0,35,0.00,,,0.00,meteohub,2013-01-30 19:02:00,
2013-01-30 13:07:00,45.5,18.7,28.56,West,270,17.0,24.0,34,0.00,,,0.00,meteohub,2013-01-30 19:07:00,
2013-01-30 13:12:00,45.7,19.6,28.56,WSW,248,23.0,24.0,35,0.00,,,0.00,meteohub,2013-01-30 19:12:00,
2013-01-30 13:17:00,45.5,20.1,28.56,WNW,293,14.0,27.0,36,0.00,,,0.00,meteohub,2013-01-30 19:17:00,
2013-01-30 13:22:00,45.9,18.3,28.56,NW,315,15.0,27.0,33,0.00,,,0.00,meteohub,2013-01-30 19:22:00,
2013-01-30 13:27:00,46.2,17.2,28.55,West,270,17.0,25.0,31,0.00,,,0.00,meteohub,2013-01-30 19:27:00,
2013-01-30 13:32:00,46.4,15.8,28.55,NW,315,21.0,25.0,29,0.00,,,0.00,meteohub,2013-01-30 19:32:00,
2013-01-30 13:37:00,46.4,17.4,28.55,NW,315,16.0,25.0,31,0.00,,,0.00,meteohub,2013-01-30 19:37:00,
2013-01-30 13:42:00,46.9,18.7,28.54,West,270,17.0,25.0,32,0.00,,,0.00,meteohub,2013-01-30 19:42:00,
2013-01-30 13:47:00,47.1,15.6,28.55,NW,315,14.0,21.0,28,0.00,,,0.00,meteohub,2013-01-30 19:47:00,
2013-01-30 13:52:00,47.3,15.8,28.54,NW,315,13.0,20.0,28,0.00,,,0.00,meteohub,2013-01-30 19:52:00,
2013-01-30 13:57:00,47.1,14.0,28.54,NW,315,14.0,20.0,26,0.00,,,0.00,meteohub,2013-01-30 19:57:00,
2013-01-30 14:02:00,47.3,13.3,28.54,West,270,12.0,21.0,25,0.00,,,0.00,meteohub,2013-01-30 20:02:00,
2013-01-30 14:07:00,47.8,12.7,28.53,West,270,11.0,21.0,24,0.00,,,0.00,meteohub,2013-01-30 20:07:00,
2013-01-30 14:12:00,48.4,14.2,28.53,West,270,12.0,20.0,25,0.00,,,0.00,meteohub,2013-01-30 20:12:00,
2013-01-30 14:17:00,48.6,10.4,28.53,North,0,14.0,16.0,21,0.00,,,0.00,meteohub,2013-01-30 20:17:00,
2013-01-30 14:22:00,48.7,8.2,28.53,NW,315,21.0,21.0,19,0.00,,,0.00,meteohub,2013-01-30 20:22:00,
2013-01-30 14:27:00,48.7,9.5,28.53,West,270,24.0,25.0,20,0.00,,,0.00,meteohub,2013-01-30 20:27:00,
2013-01-30 14:32:00,48.4,8.1,28.53,NW,315,21.0,25.0,19,0.00,,,0.00,meteohub,2013-01-30 20:32:00,
2013-01-30 14:37:00,49.3,9.9,28.53,NW,315,13.0,25.0,20,0.00,,,0.00,meteohub,2013-01-30 20:37:00,
2013-01-30 14:42:00,48.9,8.4,28.53,West,270,12.0,24.0,19,0.00,,,0.00,meteohub,2013-01-30 20:42:00,
2013-01-30 14:47:00,49.1,8.6,28.53,NW,315,10.0,21.0,19,0.00,,,0.00,meteohub,2013-01-30 20:47:00,
2013-01-30 14:52:00,49.6,9.0,28.53,West,270,15.0,21.0,19,0.00,,,0.00,meteohub,2013-01-30 20:52:00,
2013-01-30 14:57:00,49.1,9.7,28.53,West,270,12.0,19.0,20,0.00,,,0.00,meteohub,2013-01-30 20:57:00,
2013-01-30 15:02:00,49.5,7.7,28.53,West,270,17.0,22.0,18,0.00,,,0.00,meteohub,2013-01-30 21:02:00,
2013-01-30 15:07:00,49.8,8.1,28.53,NW,315,17.0,22.0,18,0.00,,,0.00,meteohub,2013-01-30 21:07:00,
2013-01-30 15:12:00,49.6,7.9,28.53,West,270,15.0,22.0,18,0.00,,,0.00,meteohub,2013-01-30 21:12:00,
2013-01-30 15:17:00,49.8,5.4,28.53,NW,315,23.0,23.0,16,0.00,,,0.00,meteohub,2013-01-30 21:17:00,
2013-01-30 15:22:00,49.8,5.4,28.53,NW,315,19.0,23.0,16,0.00,,,0.00,meteohub,2013-01-30 21:22:00,
2013-01-30 15:27:00,49.8,5.4,28.53,SW,225,21.0,23.0,16,0.00,,,0.00,meteohub,2013-01-30 21:27:00,
2013-01-30 15:32:00,49.8,5.4,28.53,West,270,20.0,23.0,16,0.00,,,0.00,meteohub,2013-01-30 21:32:00,
2013-01-30 15:37:00,49.6,5.2,28.53,West,270,11.0,23.0,16,0.00,,,0.00,meteohub,2013-01-30 21:37:00,
2013-01-30 15:42:00,50.4,4.5,28.53,SW,225,9.0,21.0,15,0.00,,,0.00,meteohub,2013-01-30 21:42:00,
2013-01-30 15:47:00,50.5,3.0,28.53,SW,225,21.0,21.0,14,0.00,,,0.00,meteohub,2013-01-30 21:47:00,
2013-01-30 15:52:00,50.4,1.4,28.53,West,270,26.0,26.0,13,0.00,,,0.00,meteohub,2013-01-30 21:52:00,
2013-01-30 15:57:00,50.4,3.0,28.53,West,270,22.0,26.0,14,0.00,,,0.00,meteohub,2013-01-30 21:57:00,
2013-01-30 16:02:00,50.5,1.4,28.53,West,270,18.0,26.0,13,0.00,,,0.00,meteohub,2013-01-30 22:02:00,
2013-01-30 16:07:00,50.4,3.0,28.53,NW,315,20.0,26.0,14,0.00,,,0.00,meteohub,2013-01-30 22:07:00,
2013-01-30 16:12:00,50.4,4.5,28.53,West,270,15.0,23.0,15,0.00,,,0.00,meteohub,2013-01-30 22:12:00,
2013-01-30 16:17:00,50.5,3.0,28.53,NW,315,20.0,23.0,14,0.00,,,0.00,meteohub,2013-01-30 22:17:00,
2013-01-30 16:22:00,50.5,1.4,28.53,SW,225,26.0,30.0,13,0.00,,,0.00,meteohub,2013-01-30 22:22:00,
2013-01-30 16:27:00,50.7,1.6,28.53,NW,315,19.0,30.0,13,0.00,,,0.00,meteohub,2013-01-30 22:27:00,
2013-01-30 16:32:00,50.4,1.4,28.53,West,270,21.0,27.0,13,0.00,,,0.00,meteohub,2013-01-30 22:32:00,
2013-01-30 16:37:00,50.2,1.2,28.53,West,270,22.0,27.0,13,0.00,,,0.00,meteohub,2013-01-30 22:37:00,
2013-01-30 16:42:00,50.2,-0.6,28.53,NW,315,23.0,27.0,12,0.00,,,0.00,meteohub,2013-01-30 22:42:00,
2013-01-30 16:47:00,50.0,-0.6,28.52,SW,225,17.0,23.0,12,0.00,,,0.00,meteohub,2013-01-30 22:47:00,
2013-01-30 16:52:00,49.8,0.9,28.52,WNW,293,23.0,23.0,13,0.00,,,0.00,meteohub,2013-01-30 22:52:00,
2013-01-30 16:57:00,49.6,0.7,28.52,West,270,13.0,23.0,13,0.00,,,0.00,meteohub,2013-01-30 22:57:00,
2013-01-30 17:02:00,49.8,0.9,28.53,West,270,24.0,24.0,13,0.00,,,0.00,meteohub,2013-01-30 23:02:00,
2013-01-30 17:07:00,49.3,0.5,28.53,West,270,22.0,23.0,13,0.00,,,0.00,meteohub,2013-01-30 23:07:00,
2013-01-30 17:12:00,49.5,2.3,28.53,North,0,14.0,24.0,14,0.00,,,0.00,meteohub,2013-01-30 23:12:00,
2013-01-30 17:17:00,49.5,3.7,28.53,West,270,15.0,24.0,15,0.00,,,0.00,meteohub,2013-01-30 23:17:00,
2013-01-30 17:22:00,49.1,3.4,28.53,SW,225,17.0,23.0,15,0.00,,,0.00,meteohub,2013-01-30 23:22:00,
2013-01-30 17:27:00,49.1,3.4,28.53,SW,225,16.0,19.0,15,0.00,,,0.00,meteohub,2013-01-30 23:27:00,
2013-01-30 17:32:00,48.9,4.6,28.53,NW,315,12.0,19.0,16,0.00,,,0.00,meteohub,2013-01-30 23:32:00,
2013-01-30 17:37:00,48.4,5.5,28.53,West,270,14.0,19.0,17,0.00,,,0.00,meteohub,2013-01-30 23:37:00,
2013-01-30 17:42:00,48.2,5.4,28.54,SW,225,12.0,17.0,17,0.00,,,0.00,meteohub,2013-01-30 23:42:00,
2013-01-30 17:47:00,48.2,6.6,28.53,NW,315,12.0,17.0,18,0.00,,,0.00,meteohub,2013-01-30 23:47:00,
2013-01-30 17:52:00,47.7,6.3,28.53,West,270,10.0,15.0,18,0.00,,,0.00,meteohub,2013-01-30 23:52:00,
2013-01-30 17:57:00,47.1,7.0,28.54,SW,225,13.0,15.0,19,0.00,,,0.00,meteohub,2013-01-30 23:57:00,
2013-01-30 18:02:00,46.9,6.8,28.53,West,270,10.0,13.0,19,0.00,,,0.00,meteohub,2013-01-31 00:02:00,
2013-01-30 18:07:00,46.0,8.2,28.54,SW,225,4.0,13.0,21,0.00,,,0.00,meteohub,2013-01-31 00:07:00,
2013-01-30 18:12:00,45.3,7.7,28.54,NW,315,5.0,13.0,21,0.00,,,0.00,meteohub,2013-01-31 00:12:00,
2013-01-30 18:17:00,45.0,8.4,28.54,SW,225,4.0,11.0,22,0.00,,,0.00,meteohub,2013-01-31 00:17:00,
2013-01-30 18:22:00,44.8,9.1,28.54,SW,225,3.0,7.0,23,0.00,,,0.00,meteohub,2013-01-31 00:22:00,
2013-01-30 18:27:00,44.6,9.1,28.54,West,270,4.0,7.0,23,0.00,,,0.00,meteohub,2013-01-31 00:27:00,
2013-01-30 18:32:00,44.6,8.1,28.54,SW,225,4.0,6.0,22,0.00,,,0.00,meteohub,2013-01-31 00:32:00,
2013-01-30 18:37:00,44.4,9.0,28.54,SW,225,2.0,6.0,23,0.00,,,0.00,meteohub,2013-01-31 00:37:00,
2013-01-30 18:42:00,43.9,8.4,28.55,SW,225,2.0,6.0,23,0.00,,,0.00,meteohub,2013-01-31 00:42:00,
2013-01-30 18:47:00,43.5,9.1,28.55,SW,225,2.0,4.0,24,0.00,,,0.00,meteohub,2013-01-31 00:47:00,
2013-01-30 18:52:00,43.3,9.0,28.55,SW,225,2.0,2.0,24,0.00,,,0.00,meteohub,2013-01-31 00:52:00,
2013-01-30 18:57:00,43.0,8.6,28.54,SW,225,1.0,2.0,24,0.00,,,0.00,meteohub,2013-01-31 00:57:00,
2013-01-30 19:02:00,43.3,9.0,28.55,SW,225,0.0,2.0,24,0.00,,,0.00,meteohub,2013-01-31 01:02:00,
2013-01-30 19:07:00,43.3,9.0,28.55,SW,225,0.0,2.0,24,0.00,,,0.00,meteohub,2013-01-31 01:07:00,
2013-01-30 19:12:00,43.5,9.1,28.54,South,180,0.0,2.0,24,0.00,,,0.00,meteohub,2013-01-31 01:12:00,
2013-01-30 19:17:00,43.5,9.1,28.54,South,180,0.0,0.0,24,0.00,,,0.00,meteohub,2013-01-31 01:17:00,
2013-01-30 19:22:00,43.2,8.8,28.54,NW,315,0.0,0.0,24,0.00,,,0.00,meteohub,2013-01-31 01:22:00,
2013-01-30 19:27:00,43.0,8.6,28.55,NW,315,0.0,0.0,24,0.00,,,0.00,meteohub,2013-01-31 01:27:00,
2013-01-30 19:32:00,43.0,9.5,28.55,South,180,0.0,0.0,25,0.00,,,0.00,meteohub,2013-01-31 01:32:00,
2013-01-30 19:37:00,42.8,9.3,28.55,SE,135,1.0,0.0,25,0.00,,,0.00,meteohub,2013-01-31 01:37:00,
2013-01-30 19:42:00,42.4,10.0,28.55,South,180,0.0,2.0,26,0.00,,,0.00,meteohub,2013-01-31 01:42:00,
2013-01-30 19:47:00,42.3,10.6,28.55,South,180,0.0,2.0,27,0.00,,,0.00,meteohub,2013-01-31 01:47:00,
2013-01-30 19:52:00,41.9,10.4,28.56,South,180,0.0,2.0,27,0.00,,,0.00,meteohub,2013-01-31 01:52:00,
2013-01-30 19:57:00,42.3,10.6,28.56,South,180,1.0,0.0,27,0.00,,,0.00,meteohub,2013-01-31 01:57:00,
2013-01-30 20:03:00,42.4,10.8,28.56,South,180,0.0,2.0,27,0.00,,,0.00,meteohub,2013-01-31 02:03:00,
2013-01-30 20:07:00,42.4,10.0,28.56,South,180,3.0,3.0,26,0.00,,,0.00,meteohub,2013-01-31 02:07:00,
2013-01-30 20:12:00,42.3,9.9,28.56,South,180,0.0,3.0,26,0.00,,,0.00,meteohub,2013-01-31 02:12:00,
2013-01-30 20:18:00,41.9,10.4,28.56,South,180,0.0,3.0,27,0.00,,,0.00,meteohub,2013-01-31 02:18:00,
2013-01-30 20:23:00,41.5,10.8,28.57,South,180,2.0,3.0,28,0.00,,,0.00,meteohub,2013-01-31 02:23:00,
2013-01-30 20:28:00,41.4,10.8,28.57,South,180,0.0,2.0,28,0.00,,,0.00,meteohub,2013-01-31 02:28:00,
2013-01-30 20:33:00,41.0,11.1,28.57,NW,315,2.0,2.0,29,0.00,,,0.00,meteohub,2013-01-31 02:33:00,
2013-01-30 20:38:00,40.3,12.7,28.58,NW,315,3.0,3.0,32,0.00,,,0.00,meteohub,2013-01-31 02:38:00,
2013-01-30 20:43:00,39.7,12.9,28.58,NW,315,3.0,3.0,33,0.00,,,0.00,meteohub,2013-01-31 02:43:00,
2013-01-30 20:48:00,39.0,12.4,28.58,West,270,2.0,3.0,33,0.00,,,0.00,meteohub,2013-01-31 02:48:00,
2013-01-30 20:53:00,38.7,12.0,28.58,West,270,4.0,4.0,33,0.00,,,0.00,meteohub,2013-01-31 02:53:00,
2013-01-30 20:58:00,38.1,12.9,28.58,South,180,3.0,4.0,35,0.00,,,0.00,meteohub,2013-01-31 02:58:00,
2013-01-30 21:03:00,37.9,12.7,28.58,South,180,3.0,4.0,35,0.00,,,0.00,meteohub,2013-01-31 03:03:00,
2013-01-30 21:08:00,37.6,12.4,28.58,SW,225,2.0,4.0,35,0.00,,,0.00,meteohub,2013-01-31 03:08:00,
2013-01-30 21:13:00,37.8,11.8,28.59,SW,225,3.0,4.0,34,0.00,,,0.00,meteohub,2013-01-31 03:13:00,
2013-01-30 21:18:00,38.1,12.2,28.58,South,180,2.0,4.0,34,0.00,,,0.00,meteohub,2013-01-31 03:18:00,
2013-01-30 21:23:00,38.3,11.7,28.58,South,180,3.0,3.0,33,0.00,,,0.00,meteohub,2013-01-31 03:23:00,
2013-01-30 21:28:00,38.3,11.7,28.58,South,180,2.0,3.0,33,0.00,,,0.00,meteohub,2013-01-31 03:28:00,
2013-01-30 21:33:00,38.5,11.8,28.58,SW,225,2.0,3.0,33,0.00,,,0.00,meteohub,2013-01-31 03:33:00,
2013-01-30 21:38:00,38.8,10.8,28.58,South,180,3.0,3.0,31,0.00,,,0.00,meteohub,2013-01-31 03:38:00,
2013-01-30 21:43:00,38.8,10.8,28.58,South,180,2.0,3.0,31,0.00,,,0.00,meteohub,2013-01-31 03:43:00,
2013-01-30 21:48:00,38.7,11.3,28.58,SE,135,1.0,3.0,32,0.00,,,0.00,meteohub,2013-01-31 03:48:00,
2013-01-30 21:53:00,38.1,11.5,28.58,SE,135,2.0,3.0,33,0.00,,,0.00,meteohub,2013-01-31 03:53:00,
2013-01-30 21:58:00,37.8,11.8,28.58,SE,135,2.0,3.0,34,0.00,,,0.00,meteohub,2013-01-31 03:58:00,
2013-01-30 22:03:00,37.0,12.6,28.58,East,90,2.0,2.0,36,0.00,,,0.00,meteohub,2013-01-31 04:03:00,
2013-01-30 22:08:00,36.5,12.7,28.58,SE,135,2.0,2.0,37,0.00,,,0.00,meteohub,2013-01-31 04:08:00,
2013-01-30 22:13:00,36.0,12.7,28.58,SE,135,2.0,2.0,38,0.00,,,0.00,meteohub,2013-01-31 04:13:00,
2013-01-30 22:18:00,35.6,12.6,28.58,SE,135,2.0,2.0,38,0.00,,,0.00,meteohub,2013-01-31 04:18:00,
2013-01-30 22:23:00,35.2,12.7,28.58,SE,135,2.0,2.0,39,0.00,,,0.00,meteohub,2013-01-31 04:23:00,
2013-01-30 22:28:00,35.2,12.7,28.58,SE,135,2.0,2.0,39,0.00,,,0.00,meteohub,2013-01-31 04:28:00,
2013-01-30 22:33:00,35.2,12.7,28.57,SE,135,2.0,2.0,39,0.00,,,0.00,meteohub,2013-01-31 04:33:00,
2013-01-30 22:38:00,36.0,12.7,28.58,South,180,2.0,2.0,38,0.00,,,0.00,meteohub,2013-01-31 04:38:00,
2013-01-30 22:43:00,36.3,11.8,28.57,SSE,158,2.0,2.0,36,0.00,,,0.00,meteohub,2013-01-31 04:43:00,
2013-01-30 22:48:00,36.9,11.8,28.57,South,180,2.0,3.0,35,0.00,,,0.00,meteohub,2013-01-31 04:48:00,
2013-01-30 22:53:00,37.4,11.7,28.57,South,180,2.0,3.0,34,0.00,,,0.00,meteohub,2013-01-31 04:53:00,
2013-01-30 22:58:00,37.8,11.3,28.57,South,180,3.0,3.0,33,0.00,,,0.00,meteohub,2013-01-31 04:58:00,
2013-01-30 23:00:00,37.9,10.8,28.57,South,180,3.0,3.0,32,0.00,,,0.00,meteohub,2013-01-31 05:00:00,
2013-01-30 23:02:00,37.9,10.8,28.58,South,180,3.0,3.0,32,0.00,,,0.00,meteohub,2013-01-31 05:02:00,
2013-01-30 23:03:00,37.9,10.8,28.58,South,180,3.0,3.0,32,0.00,,,0.00,meteohub,2013-01-31 05:03:00,
2013-01-30 23:08:00,38.1,10.9,28.57,SE,135,2.0,3.0,32,0.00,,,0.00,meteohub,2013-01-31 05:08:00,
2013-01-30 23:13:00,37.6,11.1,28.57,SE,135,2.0,3.0,33,0.00,,,0.00,meteohub,2013-01-31 05:13:00,
2013-01-30 23:18:00,37.0,11.3,28.57,South,180,2.0,3.0,34,0.00,,,0.00,meteohub,2013-01-31 05:18:00,
2013-01-30 23:23:00,36.0,11.7,28.57,SSE,158,2.0,3.0,36,0.00,,,0.00,meteohub,2013-01-31 05:23:00,
2013-01-30 23:28:00,35.6,12.6,28.57,South,180,3.0,3.0,38,0.00,,,0.00,meteohub,2013-01-31 05:28:00,
2013-01-30 23:33:00,34.9,12.4,28.58,SE,135,2.0,4.0,39,0.00,,,0.00,meteohub,2013-01-31 05:33:00,
2013-01-30 23:38:00,34.7,12.2,28.58,South,180,2.0,4.0,39,0.00,,,0.00,meteohub,2013-01-31 05:38:00,
2013-01-30 23:43:00,34.2,11.8,28.58,SE,135,2.0,4.0,39,0.00,,,0.00,meteohub,2013-01-31 05:43:00,
2013-01-30 23:48:00,34.0,12.7,28.58,South,180,2.0,4.0,41,0.00,,,0.00,meteohub,2013-01-31 05:48:00,
2013-01-30 23:53:00,33.8,12.6,28.57,South,180,2.0,2.0,41,0.00,,,0.00,meteohub,2013-01-31 05:53:00,
2013-01-30 23:58:00,33.4,12.7,28.58,South,180,3.0,3.0,42,0.00,,,0.00,meteohub,2013-01-31 05:58:00,